This is the latest recevied weather packets stored in our database for station/object KT2UU-13. If no packets are shown the sender has not sent any weather packets the latest 10 day(s).
| Time | Temp. | Humidity | Pressure | Rain* | Wind** | Luminosity | Snow |
|---|---|---|---|---|---|---|---|
| 1778031302 | 21.67° C | 53% | 1013.7 hPa | 0 mm | - | - | - |
| 1778030998 | 21.67° C | 52% | 1014 hPa | 0 mm | - | - | - |
| 1778030694 | 22.22° C | 53% | 1014 hPa | 0 mm | - | - | - |
| 1778030391 | 22.22° C | 50% | 1013.8 hPa | 0 mm | - | - | - |
| 1778030089 | 22.22° C | 51% | 1013.8 hPa | 0 mm | - | - | - |
| 1778029785 | 22.22° C | 51% | 1013.7 hPa | 0 mm | - | - | - |
| 1778029484 | 22.22° C | 50% | 1013.7 hPa | 0 mm | - | - | - |
| 1778029180 | 22.22° C | 50% | 1013.5 hPa | 0 mm | - | - | - |
| 1778028878 | 22.22° C | 49% | 1013.7 hPa | 0 mm | - | - | - |
| 1778028573 | 22.22° C | 50% | 1013.6 hPa | 0 mm | - | - | - |
| 1778028272 | 22.22° C | 48% | 1013.4 hPa | 0 mm | - | - | - |
| 1778027967 | 22.22° C | 49% | 1013.5 hPa | 0 mm | - | - | - |
| 1778027663 | 21.67° C | 50% | 1013.5 hPa | 0 mm | - | - | - |
| 1778027360 | 21.67° C | 49% | 1013.4 hPa | 0 mm | - | - | - |
| 1778027056 | 21.67° C | 49% | 1013.6 hPa | 0 mm | - | - | - |
| 1778026752 | 22.22° C | 49% | 1013.4 hPa | 0 mm | - | - | - |
| 1778026449 | 22.22° C | 49% | 1013.5 hPa | 0 mm | - | - | - |
| 1778026146 | 22.22° C | 48% | 1013.4 hPa | 0 mm | - | - | - |
| 1778025844 | 22.22° C | 47% | 1013.5 hPa | 0 mm | - | - | - |
| 1778025540 | 22.78° C | 50% | 1013.5 hPa | 0 mm | - | - | - |
| 1778025238 | 22.78° C | 49% | 1013.4 hPa | 0 mm | - | - | - |
| 1778024935 | 22.78° C | 48% | 1013.5 hPa | 0 mm | - | - | - |
| 1778024633 | 23.33° C | 48% | 1013.6 hPa | 0 mm | - | - | - |
| 1778024329 | 23.33° C | 48% | 1013.4 hPa | 0 mm | - | - | - |
| 1778024027 | 23.89° C | 47% | 1013.6 hPa | 0 mm | - | - | - |
* Rain latest hour (hover to see other rain measurements)
** Current wind speed in m/s (hover to see current wind gust speed)